"Pseudo-MPEC" for P110LJ8

Created 2020 May 26 12:07:18 UT using Find_Orb

Click here for an explanation of pseudo-MPECs

 
 Astrometry: 
     P110LJ8  C2020 05 218c1a+0rxAstrometryq!@pbredacted;^3^c;clickYU)`[MtWuPF51
     P110LJ8  C2020 05 21^x]v;H820x)eSNWAfhere@\yOf`0mZABe%@U5$m57WgtC,NK=ok7F51
     P110LJ8  C2020 05 21+jfq*vd?q,*v,+;0yP!Vvfory$$$uMexplanationo2X`x*jNHcEF51
     P110LJ8  C2020 05 21Umu5SQY[?6Soi1Mn,Tcrg#Jqnxs1w(%L2-IPf*JV8sFI!:0UW(B[F51

Station data:
(F51) Pan-STARRS 1, Haleakala  (N20.707235 W156.255910)  US/Hawaii.
   Observers N. Primak, A. Schultz, S. Watters, J. Thiel, T. Goggia. Measurer
   PS1 Science Consortium. 1.8-m Ritchey-Chrétien + CCD.

Orbital elements:  P110LJ8
   Perihelion 2021 Apr 5.196450 +/- 229 TT =  4:42:53 (JD 2459309.696450)
Epoch 2020 May 21.0 TT = JDT 2458990.5   Earth MOID: 0.4657   Ma: 0.0011
M 231.45299416 +/- 80               (J2000 ecliptic)          AutoNEOCP
n   0.40272066 +/- 0.252            Peri.  164.43471 +/- 90
a   1.81607357 +/- 0.759            Node   225.46423 +/- 46
e   0.2002691 +/- 0.272             Incl.   21.67113 +/- 29
P   2.45/893.90d           H 19.8   G  0.15   U 11.8  SR
q 1.45237005 +/- 0.827    Q 2.17977710 +/- 35.8
From 4 observations 2020 May 21 (55.1 min); mean residual 0".09
Residuals in arcseconds: 
200521 F51  .08-  .10+    200521 F51  .06+  .06-    
200521 F51  .09+  .12-    200521 F51  .07-  .08+    

Ephemerides (geocentric):
Date (UTC) HH   RA              Dec         delta   r     elong  mag " sig PA
---- -- -- --  -------------   -----------  ------ ------ -----  --- ---- ---
2020 05 26 12  16 31 12.451   -06 07 23.44  1.0773 2.0711 164.4 22.1  25d   4
2020 05 26 13  16 31 09.280   -06 06 42.87  1.0773 2.0710 164.4 22.1  25d   4
2020 05 26 14  16 31 06.108   -06 06 02.31  1.0772 2.0709 164.3 22.1  25d   4
2020 05 26 15  16 31 02.936   -06 05 21.77  1.0771 2.0709 164.3 22.1  25d   4
2020 05 26 16  16 30 59.763   -06 04 41.25  1.0771 2.0708 164.3 22.1  25d   4
2020 05 26 17  16 30 56.590   -06 04 00.74  1.0770 2.0707 164.3 22.1  25d   4
2020 05 26 18  16 30 53.416   -06 03 20.25  1.0769 2.0707 164.3 22.1  25d   4
2020 05 26 19  16 30 50.241   -06 02 39.77  1.0769 2.0706 164.3 22.1  25d   4
2020 05 26 20  16 30 47.066   -06 01 59.31  1.0768 2.0705 164.3 22.1  25d   4
2020 05 26 21  16 30 43.890   -06 01 18.87  1.0767 2.0705 164.3 22.1  25d   4
2020 05 26 22  16 30 40.714   -06 00 38.45  1.0767 2.0704 164.3 22.1  25d   4
2020 05 26 23  16 30 37.537   -05 59 58.04  1.0766 2.0703 164.3 22.1  25d   4
2020 05 27 00  16 30 34.360   -05 59 17.65  1.0766 2.0703 164.3 22.1  25d   4
2020 05 27 01  16 30 31.182   -05 58 37.27  1.0765 2.0702 164.3 22.1  25d   4
2020 05 27 02  16 30 28.004   -05 57 56.91  1.0764 2.0701 164.3 22.1  25d   4
2020 05 27 03  16 30 24.825   -05 57 16.57  1.0764 2.0701 164.3 22.1  25d   4
2020 05 27 04  16 30 21.645   -05 56 36.25  1.0763 2.0700 164.3 22.1  25d   4
2020 05 27 05  16 30 18.465   -05 55 55.94  1.0763 2.0699 164.3 22.1  25d   5
2020 05 27 06  16 30 15.285   -05 55 15.66  1.0762 2.0699 164.3 22.1  25d   5
2020 05 27 07  16 30 12.104   -05 54 35.38  1.0762 2.0698 164.3 22.1  25d   5
2020 05 27 08  16 30 08.922   -05 53 55.13  1.0761 2.0697 164.2 22.1  25d   5
2020 05 27 09  16 30 05.740   -05 53 14.89  1.0760 2.0697 164.2 22.1  25d   5
2020 05 27 10  16 30 02.558   -05 52 34.67  1.0760 2.0696 164.2 22.1  25d   5
2020 05 27 11  16 29 59.375   -05 51 54.47  1.0759 2.0695 164.2 22.1  25d   6
2020 05 27 12  16 29 56.192   -05 51 14.29  1.0759 2.0695 164.2 22.1  25d   7
2020 05 27 13  16 29 53.008   -05 50 34.12  1.0758 2.0694 164.2 22.1  25d   8
2020 05 27 14  16 29 49.824   -05 49 53.97  1.0758 2.0693 164.2 22.1  26d   9
2020 05 27 15  16 29 46.640   -05 49 13.84  1.0757 2.0693 164.2 22.1  27d  10
2020 05 27 16  16 29 43.455   -05 48 33.72  1.0757 2.0692 164.2 22.1  28d   9
2020 05 27 17  16 29 40.269   -05 47 53.63  1.0756 2.0691 164.2 22.1  28d   9
2020 05 27 18  16 29 37.084   -05 47 13.55  1.0756 2.0691 164.2 22.1  29d   9
2020 05 27 19  16 29 33.897   -05 46 33.49  1.0755 2.0690 164.2 22.1  29d   8
2020 05 27 20  16 29 30.711   -05 45 53.45  1.0755 2.0689 164.1 22.1  29d   8
2020 05 27 21  16 29 27.524   -05 45 13.43  1.0754 2.0689 164.1 22.1  29d   7
2020 05 27 22  16 29 24.337   -05 44 33.42  1.0754 2.0688 164.1 22.1  29d   7
2020 05 27 23  16 29 21.149   -05 43 53.43  1.0753 2.0687 164.1 22.1  29d   7
2020 05 28 00  16 29 17.961   -05 43 13.46  1.0753 2.0687 164.1 22.1  29d   7
2020 05 28 01  16 29 14.773   -05 42 33.51  1.0752 2.0686 164.1 22.1  30d   6
2020 05 28 02  16 29 11.584   -05 41 53.58  1.0752 2.0685 164.1 22.1  30d   6
2020 05 28 03  16 29 08.395   -05 41 13.67  1.0751 2.0685 164.1 22.1  30d   6
2020 05 28 04  16 29 05.205   -05 40 33.77  1.0751 2.0684 164.1 22.1  30d   6
2020 05 28 05  16 29 02.016   -05 39 53.90  1.0750 2.0683 164.1 22.1  30d   6
2020 05 28 06  16 28 58.826   -05 39 14.04  1.0750 2.0683 164.0 22.1  30d   6
2020 05 28 07  16 28 55.635   -05 38 34.20  1.0749 2.0682 164.0 22.1  30d   6
2020 05 28 08  16 28 52.445   -05 37 54.38  1.0749 2.0681 164.0 22.1  30d   6
2020 05 28 09  16 28 49.254   -05 37 14.58  1.0748 2.0681 164.0 22.1  30d   6
2020 05 28 10  16 28 46.063   -05 36 34.80  1.0748 2.0680 164.0 22.1  30d   6
2020 05 28 11  16 28 42.871   -05 35 55.04  1.0747 2.0679 164.0 22.1  30d   6